Wind_Speed
10 10 9 8 8 8 8 9 10 12 12 12 12 12 12 12 13 13 12 11 11 11 11 10 9 8 8 8 8 9 8 8 9 9 10 11 12 13 13 13 13 12 12 12 13 14 15 15 15 15 15 15 15 14 14 14 14 14 14 14 14 14
11 10 10 9 8 8 9 10 10 11 11 11 10 10 10 10 11 11 11 12 11 10 10 10 9 9 8 8 9 9 10 10 10 10 10 12 13 14 14 14 14 14 14 14 14 14 15 16 17 17 17 17 18 17 16 15 15 15 15 15 15 15
12 11 11 10 8 8 9 10 10 10 10 9 8 8 8 9 10 10 11 11 11 9 9 9 9 9 8 8 8 8 9 10 10 10 11 12 14 14 15 15 15 15 15 14 14 15 15 16 17 18 18 18 19 20 19 18 18 17 16 15 15 15
13 12 11 10 9 9 10 10 10 9 8 7 6 6 7 9 10 10 11 11 10 10 9 8 9 9 8 8 8 7 8 9 9 10 11 12 13 13 14 15 16 16 16 15 15 15 15 16 16 17 18 19 20 21 22 21 21 20 19 18 17 16
13 13 12 10 10 10 10 10 9 8 7 6 5 6 7 9 10 11 11 10 10 10 9 8 8 8 8 8 8 7 7 8 9 10 11 12 12 13 13 14 16 17 17 17 16 16 16 16 16 17 17 19 20 21 23 23 23 23 22 21 19 18
14 13 12 11 11 11 10 10 9 8 7 6 5 6 7 9 10 11 11 11 10 9 9 8 8 8 8 9 9 8 8 8 9 10 11 12 13 13 13 14 15 16 17 18 17 17 17 17 17 17 17 18 19 21 23 24 25 25 25 23 22 20
14 13 13 13 12 12 11 10 9 8 7 6 6 6 8 9 10 10 11 11 10 9 9 8 8 8 8 9 10 10 9 9 10 11 12 13 13 13 13 13 13 14 15 16 17 18 18 18 17 17 18 18 19 20 22 23 25 26 27 25 24 23
14 14 14 14 13 12 11 11 10 9 8 7 7 7 8 9 10 11 11 10 10 9 9 8 9 9 9 10 10 10 10 11 11 12 12 12 12 12 12 12 12 12 13 15 17 18 19 19 19 18 18 19 20 20 22 23 24 26 27 27 26 25
15 14 14 14 14 13 12 11 11 10 9 8 8 7 8 9 10 11 10 9 9 8 8 8 9 9 10 10 10 10 11 11 11 11 11 11 12 11 11 11 11 11 12 14 15 18 19 20 20 20 20 20 20 21 21 22 24 25 27 28 27 26
16 15 15 15 15 14 13 12 11 10 10 10 9 8 8 9 10 10 9 8 8 8 8 8 9 10 11 11 11 11 11 11 11 11 12 12 12 12 11 10 10 11 12 13 14 16 18 19 19 20 21 21 21 21 21 22 23 24 26 27 27 27
17 17 16 16 15 14 13 13 12 11 11 11 10 9 8 9 9 9 8 7 7 8 9 9 10 11 11 11 10 11 11 11 12 12 13 13 13 12 12 11 11 12 12 13 14 15 17 18 19 19 20 21 22 22 22 22 23 24 25 26 27 27
18 18 17 16 15 15 14 14 13 12 12 11 10 10 9 9 9 9 8 7 7 8 9 10 10 10 9 9 9 10 11 12 13 13 14 14 14 14 13 13 13 13 13 13 14 15 17 18 19 19 20 21 22 23 23 22 22 23 25 27 27 27
17 18 18 16 16 15 15 14 14 13 13 12 11 11 10 9 9 9 8 7 8 8 9 9 9 9 9 8 9 10 11 12 13 14 14 15 15 15 15 15 15 15 14 14 14 15 17 18 19 19 20 21 22 23 23 23 22 22 24 26 28 28
17 18 18 17 16 16 15 15 14 14 14 13 12 11 11 10 10 9 9 8 8 8 8 9 9 10 10 10 11 13 14 15 15 15 15 15 16 16 16 17 17 17 16 16 16 17 17 18 19 19 20 21 22 22 23 24 23 22 23 25 27 28
18 18 18 18 17 16 15 14 14 14 14 14 13 12 12 11 11 11 10 10 10 9 9 9 10 11 13 14 16 17 18 18 17 17 17 17 17 17 18 18 18 18 18 18 18 18 19 19 19 19 20 21 22 23 23 24 24 24 24 24 26 27
19 19 18 18 16 15 14 14 14 14 15 14 13 13 13 13 12 12 12 11 11 11 11 11 12 13 14 16 17 18 19 19 18 18 18 18 19 19 19 19 19 19 19 19 20 20 20 21 21 21 21 21 22 24 25 25 25 26 26 26 26 26
18 18 18 17 16 14 14 14 14 15 15 15 14 15 15 14 14 13 13 13 13 13 13 13 13 14 15 15 16 17 17 17 17 18 18 19 19 19 19 19 20 20 21 21 21 21 22 22 23 23 23 22 23 24 25 26 26 27 28 28 28 27
17 17 17 16 15 14 14 15 15 15 15 15 15 15 15 15 15 15 15 15 15 15 15 16 16 16 16 15 15 15 15 15 15 16 17 18 19 19 20 20 20 21 21 22 22 22 23 23 24 24 24 24 24 24 25 26 26 27 28 29 29 28
17 17 17 16 16 15 15 15 15 15 15 16 16 15 15 15 15 16 17 17 17 17 18 18 18 18 17 16 15 14 15 15 15 15 16 17 18 19 20 20 20 21 22 22 22 23 23 24 25 25 25 25 26 26 27 27 27 28 28 29 30 29
18 17 18 17 16 16 15 15 15 15 15 15 15 15 15 16 16 17 18 18 19 19 19 20 20 20 19 18 17 16 16 16 16 17 17 18 18 19 20 21 22 22 23 23 23 24 24 25 25 25 26 26 26 28 28 28 29 29 28 28 29 29
18 18 18 17 17 17 16 16 16 15 15 15 15 16 16 16 17 17 18 19 19 20 21 21 21 21 21 20 19 18 18 17 18 18 19 19 19 20 22 22 23 24 25 25 25 25 25 26 26 26 26 26 26 27 28 29 29 29 28 27 28 29
18 19 19 18 18 17 17 17 16 16 16 16 16 17 17 17 17 18 18 19 19 20 21 22 22 22 22 22 21 21 20 20 20 20 21 21 21 22 23 23 24 25 26 26 26 26 26 27 27 27 26 26 26 26 27 28 28 28 27 26 26 28
18 19 20 19 19 18 18 18 17 17 17 17 18 18 18 18 18 18 18 19 19 20 21 22 23 23 23 23 22 22 22 22 22 22 23 23 23 23 24 24 25 25 26 26 26 26 27 27 27 27 27 26 26 26 26 27 26 27 27 26 25 26
20 21 21 20 19 19 19 19 19 19 19 20 19 19 19 18 18 18 18 18 19 20 21 22 22 23 23 24 24 24 23 23 23 23 24 24 24 24 25 25 26 26 26 27 27 27 27 27 27 27 27 27 26 26 26 26 25 26 27 26 26 25
20 20 20 20 19 20 20 19 19 19 20 20 20 19 19 18 18 18 18 18 19 20 20 21 22 22 23 24 24 25 25 25 25 25 25 25 25 25 26 26 27 27 27 27 27 27 28 28 28 28 28 27 27 26 26 26 26 26 27 27 27 27
20 19 19 19 19 19 19 18 18 18 18 18 18 18 18 18 18 18 18 18 19 19 20 21 22 22 22 23 23 25 25 26 26 26 26 26 27 27 27 27 27 27 28 28 28 28 28 28 28 28 28 28 27 27 27 27 26 25 26 27 28 28
19 19 18 18 18 17 17 16 16 16 17 17 18 18 18 18 18 17 18 18 19 19 20 21 21 22 22 23 24 25 26 26 27 27 27 27 28 28 28 28 28 28 28 28 28 28 29 29 29 29 28 28 28 28 28 28 27 25 24 26 28 28
19 18 17 17 16 16 16 16 16 17 17 18 18 18 17 17 17 17 18 18 19 19 20 20 21 22 23 23 24 25 26 27 27 28 28 28 29 29 29 29 29 29 29 29 29 29 29 29 29 29 29 29 29 29 29 28 28 26 25 24 26 28
20 19 17 17 17 17 18 18 18 18 18 18 18 17 17 17 17 18 18 19 20 20 20 21 22 22 23 24 24 25 26 27 27 28 28 29 29 30 30 31 31 31 31 30 30 30 30 29 29 30 30 30 31 30 30 29 29 27 26 25 24 26
19 19 18 18 18 19 19 18 18 18 18 18 18 17 17 17 18 19 20 20 21 21 22 22 22 23 24 24 25 25 26 26 27 28 28 29 30 30 31 31 32 32 32 32 32 31 31 30 30 30 31 31 32 32 31 31 30 29 28 27 25 25
18 18 18 18 19 19 19 18 18 18 18 18 18 18 18 19 20 21 21 22 22 23 23 23 23 23 24 24 25 25 26 26 27 28 29 29 30 30 31 32 32 33 33 33 33 32 32 32 31 31 32 32 33 33 32 32 32 31 30 29 27 26
17 17 17 18 18 19 19 18 18 18 18 19 19 19 20 20 21 22 23 24 24 24 25 24 24 24 24 25 25 26 27 27 28 28 29 30 30 31 31 32 32 33 34 34 34 34 33 33 33 33 33 33 33 34 34 34 33 33 33 31 30 28
16 16 17 17 17 17 17 18 18 18 19 19 20 20 21 22 22 23 24 25 25 25 25 25 25 25 25 26 26 27 27 28 29 29 30 30 31 32 32 32 33 33 34 35 35 35 35 34 34 34 34 34 34 34 35 35 35 35 35 34 33 32
16 17 17 16 17 17 18 18 19 19 19 20 21 21 22 23 24 25 25 26 26 26 26 26 26 27 27 27 27 27 28 29 29 30 31 31 32 33 33 34 34 34 34 35 36 36 36 36 36 36 35 35 35 35 36 36 36 37 37 36 36 35
17 17 18 17 17 18 19 19 20 20 20 21 21 22 23 24 25 26 27 27 27 27 28 29 29 29 29 29 29 29 29 30 30 31 31 32 33 33 34 35 35 35 35 35 36 36 37 38 38 38 37 37 37 36 36 36 37 37 37 37 38 37
17 18 19 19 19 19 19 20 21 21 22 22 23 23 24 26 27 27 28 29 29 30 30 31 32 32 32 31 31 31 32 32 32 32 32 33 33 34 34 35 36 36 37 37 37 37 38 38 39 39 39 39 38 38 38 37 38 38 38 38 38 38
18 19 20 20 20 20 20 21 21 22 23 24 25 26 27 28 28 29 30 31 31 32 33 33 34 34 34 34 33 33 34 34 35 35 34 34 34 35 35 36 36 37 38 38 38 38 38 39 39 40 40 40 40 40 40 39 39 39 39 39 39 39
Wind_Direction
227 230 233 239 247 258 267 275 282 289 295 300 302 302 304 308 313 315 316 317 320 319 317 315 310 311 317 315 297 279 286 309 314 311 317 326 329 328 329 330 332 332 328 321 313 308 304 303 303 302 301 300 298 298 298 297 297 298 299 300 300 298
228 231 234 238 246 256 267 274 281 288 294 298 299 301 306 310 313 315 314 315 315 311 311 307 302 305 309 315 308 287 280 295 306 306 311 320 325 325 326 327 330 332 331 329 324 316 309 305 302 301 300 298 297 296 295 294 293 293 295 297 297 296
230 231 234 237 244 253 263 271 278 285 290 291 296 305 313 317 318 318 317 315 313 310 305 300 298 302 306 312 317 304 288 291 301 305 309 317 322 323 323 325 327 329 329 328 327 323 317 310 304 301 299 297 296 295 294 293 292 291 291 292 293 294
232 232 235 237 243 251 258 266 273 278 281 283 294 310 318 323 323 321 320 317 315 311 304 299 300 304 307 310 314 310 301 298 303 307 311 316 319 321 322 323 325 326 326 325 325 324 322 316 309 303 298 297 296 294 294 294 293 293 292 291 291 292
233 233 236 238 242 248 254 260 266 268 268 274 291 308 319 325 324 322 320 318 317 313 308 304 305 308 308 309 309 306 303 301 304 309 312 314 315 317 320 322 324 324 323 323 323 323 323 321 316 309 300 296 295 293 294 295 294 294 293 293 292 292
233 234 236 238 241 245 250 255 258 257 255 264 285 303 316 323 323 323 320 318 316 313 309 304 303 304 305 306 306 304 302 301 304 308 310 311 312 315 319 320 320 320 320 321 322 323 323 322 320 315 308 300 295 292 292 293 294 293 293 294 294 293
235 236 237 238 240 242 245 249 252 250 249 260 278 297 312 318 321 322 319 316 314 310 305 301 300 302 304 305 305 305 303 303 304 306 307 308 311 315 319 320 319 317 317 319 321 322 322 322 321 318 314 308 300 294 290 291 293 293 293 294 294 294
235 236 236 236 236 238 241 244 247 246 247 257 272 289 304 313 319 322 319 315 310 306 300 298 300 303 304 304 304 304 304 304 306 307 308 310 314 318 321 323 320 317 316 316 318 318 318 319 319 318 316 313 308 302 296 292 292 292 292 291 292 293
235 235 234 232 233 235 237 240 243 243 246 255 266 281 296 308 319 324 321 315 308 303 300 301 303 305 306 305 304 304 305 307 308 309 312 315 316 318 322 324 321 317 315 314 314 313 313 315 316 316 317 316 314 311 306 299 293 291 290 289 289 290
233 233 232 231 233 234 234 238 240 241 247 254 263 276 289 305 319 324 322 315 308 304 304 305 306 306 305 304 304 306 308 309 310 311 313 314 313 314 317 320 319 317 315 313 311 309 308 311 312 314 316 316 315 314 311 306 300 296 292 290 288 288
232 231 232 232 232 232 233 237 239 242 248 254 262 271 282 299 315 321 320 312 304 302 303 304 304 305 303 303 305 308 310 311 311 311 312 312 310 311 313 315 316 316 316 315 312 308 306 308 310 312 313 313 314 313 312 310 308 304 299 294 290 289
232 231 232 233 233 233 234 238 239 241 248 254 260 266 274 290 305 312 314 308 302 300 301 302 303 303 302 303 306 309 311 312 311 311 311 311 310 311 313 314 314 314 314 314 312 309 307 307 308 309 309 310 310 311 312 312 310 308 302 296 292 289
232 231 231 233 233 233 235 238 239 243 249 253 257 261 268 280 293 302 307 304 301 300 299 298 298 297 297 300 306 310 312 312 311 310 310 310 311 312 314 314 314 313 312 312 311 309 307 307 307 307 307 307 307 308 310 310 309 307 304 299 295 291
232 231 231 232 232 233 235 237 240 245 251 255 257 261 266 274 284 293 299 299 297 298 297 294 291 289 290 294 299 303 305 306 308 309 310 309 310 311 312 311 311 311 310 310 310 308 306 305 305 305 306 306 306 305 306 306 305 305 303 302 299 294
230 229 229 231 231 232 235 238 242 247 253 256 259 261 264 269 278 286 292 294 293 294 293 290 288 286 286 288 290 292 294 296 299 303 306 307 307 308 308 308 307 307 307 308 308 307 305 304 303 302 303 303 303 302 301 301 301 301 301 301 300 297
228 228 228 231 233 235 238 240 243 248 253 256 259 260 261 266 273 280 286 289 289 290 290 290 290 290 289 288 287 287 287 289 291 295 300 303 304 305 305 305 305 305 305 306 305 304 303 303 302 301 301 300 299 299 299 299 299 299 300 299 298 297
226 228 229 232 234 237 240 241 244 248 253 257 259 260 261 266 271 276 281 285 289 293 295 296 295 295 294 292 290 287 285 286 287 291 296 299 301 302 303 304 305 305 305 306 305 304 303 303 303 303 302 301 299 298 298 298 298 298 298 298 297 296
224 228 230 232 235 238 240 242 245 249 253 257 260 262 263 268 272 276 279 284 290 294 297 297 297 298 299 298 295 292 290 288 288 291 295 298 300 302 303 304 304 305 306 306 306 306 305 305 305 305 303 303 301 300 299 298 297 296 296 295 295 295
222 226 230 233 235 238 242 243 245 249 254 258 262 265 266 270 274 277 278 281 286 290 293 296 298 300 302 302 300 298 297 295 294 295 296 298 299 301 302 303 304 305 306 306 306 306 305 305 306 305 304 304 303 302 301 300 298 296 296 296 295 295
221 225 229 232 235 237 240 242 245 251 257 261 265 267 269 273 276 277 278 280 283 286 290 293 296 299 302 304 303 303 301 300 300 300 300 299 300 301 302 303 304 306 306 306 306 306 306 306 306 305 305 304 303 303 302 302 300 299 298 297 297 296
221 225 228 231 233 236 239 242 247 253 259 264 267 269 272 274 275 276 278 280 282 285 288 290 293 297 300 303 304 305 304 303 302 302 302 302 302 303 304 305 307 308 308 308 308 308 308 307 306 306 305 305 304 303 302 302 302 301 300 299 297 296
223 226 229 231 232 236 240 244 249 255 260 265 267 269 271 273 275 276 277 279 282 285 287 288 290 294 298 301 303 305 305 304 303 303 304 304 305 305 306 307 308 309 309 308 307 308 308 307 307 306 305 305 304 303 303 303 304 304 303 302 300 297
228 229 232 233 234 238 241 245 251 255 259 263 265 266 269 272 275 277 279 281 284 287 289 289 290 292 295 297 299 300 302 302 303 304 304 304 305 305 306 307 307 308 307 306 306 306 307 307 307 306 304 304 303 303 304 305 305 304 303 304 303 301
232 232 233 235 237 239 242 245 251 256 258 261 264 266 269 271 274 277 281 283 286 288 289 289 290 291 292 294 296 297 297 299 301 301 301 301 302 303 303 304 305 306 306 305 305 305 305 305 305 305 304 303 302 303 305 305 304 303 303 304 304 303
233 233 234 235 237 240 244 248 253 257 258 260 263 265 268 270 274 279 282 285 287 288 289 289 289 290 292 294 296 296 296 297 298 298 298 298 299 299 301 302 303 305 305 305 305 305 304 304 304 303 303 303 303 302 304 303 303 302 303 303 304 303
232 233 234 236 239 242 247 252 255 257 258 260 262 265 269 272 277 281 284 286 287 288 290 290 290 291 293 294 295 295 294 295 296 296 296 297 297 297 298 299 301 303 304 304 304 304 303 303 303 302 302 302 302 301 302 302 301 301 301 301 301 301
232 234 237 240 243 246 250 253 256 258 259 261 263 265 270 274 278 281 283 286 287 289 291 293 293 293 295 296 296 295 294 293 292 292 292 293 293 294 294 295 297 299 300 301 301 301 301 301 301 301 301 301 301 301 301 301 301 301 301 300 299 299
234 236 239 242 246 248 251 254 256 259 261 263 265 267 270 274 276 279 282 285 288 290 292 294 295 295 296 296 296 295 294 292 291 290 290 290 290 291 292 292 293 295 296 297 298 298 298 298 299 299 300 299 299 299 300 300 301 302 301 300 299 299
235 236 239 241 245 247 249 252 255 259 262 264 267 269 273 276 279 281 284 287 289 291 292 294 295 296 295 295 295 294 294 293 292 292 291 291 291 291 291 291 291 292 293 294 295 295 296 296 297 298 298 298 298 298 298 299 300 301 301 300 300 300
235 237 239 242 244 247 249 250 253 257 261 265 268 272 276 279 282 284 286 288 290 291 292 293 294 294 294 294 294 295 295 295 295 294 293 292 292 292 291 291 291 291 291 291 292 293 294 295 296 296 295 296 296 296 296 297 298 299 299 300 300 300
237 239 242 245 247 249 250 251 253 256 261 266 269 273 277 280 282 285 287 288 289 291 291 292 292 293 293 294 294 295 296 296 296 296 296 295 294 294 293 293 292 292 292 291 291 291 292 293 293 293 293 293 293 293 293 293 294 295 296 296 297 297
237 240 243 245 248 250 252 253 255 257 262 267 270 274 278 281 284 286 287 289 290 291 292 292 293 293 294 294 294 294 295 296 295 295 295 295 295 296 296 295 294 294 293 292 291 291 291 291 291 291 291 290 290 290 290 290 291 292 293 293 294 295
239 243 245 247 249 251 253 254 256 260 264 269 273 277 280 283 285 287 288 290 291 292 293 293 294 294 294 295 295 295 295 295 295 294 294 294 294 295 295 295 295 295 295 294 293 292 291 290 290 289 289 289 289 289 289 289 290 290 291 291 292 292
246 248 250 252 254 254 256 257 260 263 266 270 274 278 282 284 286 288 289 291 292 294 295 295 295 296 297 298 299 298 298 298 297 296 295 294 293 293 293 294 294 295 295 295 294 293 292 291 289 288 288 288 287 287 287 287 287 287 288 289 289 290
249 252 254 255 257 258 260 263 265 267 269 272 276 280 284 285 287 288 290 292 293 295 296 297 298 300 301 302 302 302 302 301 301 299 298 296 294 293 292 292 292 292 293 293 293 293 292 291 289 288 287 286 286 286 285 285 285 285 285 286 287 288
255 257 257 257 258 260 263 266 269 271 273 275 279 283 286 287 288 289 290 292 294 296 298 299 301 302 302 303 304 304 305 305 304 302 300 298 296 294 293 292 291 291 291 290 290 290 290 290 289 288 287 286 285 285 284 283 283 283 284 284 284 285
261 261 261 261 262 264 266 269 271 273 275 277 281 285 286 287 287 288 289 291 293 294 296 298 300 301 301 302 303 304 305 306 305 303 302 300 298 296 295 293 292 291 290 289 289 288 288 288 288 287 287 286 285 284 284 283 282 282 282 283 283 283
Height
5867 5867 5868 5868 5868 5868 5868 5868 5868 5867 5867 5867 5866 5866 5865 5865 5864 5863 5863 5862 5861 5860 5860 5859 5859 5858 5858 5858 5857 5857 5856 5856 5855 5855 5854 5854 5853 5852 5851 5850 5850 5849 5848 5848 5847 5846 5845 5845 5844 5844 5843 5842 5841 5840 5840 5839 5838 5837 5837 5836 5835 5835
5866 5866 5867 5867 5867 5867 5867 5867 5867 5867 5866 5866 5865 5865 5864 5864 5863 5863 5862 5861 5861 5860 5859 5858 5858 5857 5857 5857 5857 5856 5856 5855 5855 5855 5854 5853 5853 5851 5850 5850 5849 5849 5848 5847 5847 5846 5845 5844 5843 5843 5843 5842 5841 5840 5839 5838 5837 5836 5836 5835 5834 5834
5865 5865 5865 5866 5866 5866 5866 5866 5866 5866 5865 5865 5865 5864 5864 5863 5863 5862 5861 5860 5860 5859 5859 5858 5857 5857 5857 5857 5857 5856 5855 5855 5855 5854 5854 5853 5852 5851 5850 5849 5848 5848 5847 5847 5846 5845 5845 5844 5843 5842 5842 5841 5840 5839 5838 5837 5836 5835 5835 5834 5834 5833
5864 5864 5864 5865 5865 5865 5865 5865 5865 5865 5865 5864 5864 5864 5863 5863 5862 5861 5860 5860 5859 5858 5858 5857 5857 5856 5856 5856 5856 5856 5855 5854 5854 5854 5853 5853 5852 5851 5849 5848 5847 5846 5846 5846 5845 5845 5844 5843 5842 5841 5841 5840 5840 5839 5837 5837 5836 5835 5834 5833 5833 5832
5863 5863 5864 5864 5864 5864 5864 5864 5864 5864 5864 5863 5863 5863 5862 5862 5861 5860 5859 5859 5858 5858 5857 5857 5856 5856 5855 5855 5855 5855 5854 5854 5853 5853 5853 5852 5851 5850 5849 5848 5846 5845 5844 5844 5844 5843 5843 5842 5841 5840 5840 5839 5838 5838 5836 5836 5835 5834 5833 5833 5832 5832
5862 5862 5862 5863 5863 5863 5863 5863 5863 5863 5863 5863 5862 5862 5861 5861 5860 5860 5859 5858 5857 5857 5856 5856 5856 5855 5855 5854 5854 5854 5853 5853 5853 5852 5852 5851 5850 5850 5849 5848 5846 5845 5843 5843 5842 5841 5841 5840 5840 5839 5838 5838 5837 5836 5835 5834 5834 5833 5832 5832 5831 5831
5860 5861 5861 5861 5862 5862 5862 5862 5862 5862 5862 5862 5861 5861 5860 5860 5860 5859 5858 5857 5857 5856 5856 5855 5855 5855 5854 5853 5853 5852 5852 5852 5852 5851 5851 5850 5850 5849 5848 5847 5846 5845 5843 5842 5841 5840 5839 5839 5838 5837 5837 5836 5835 5835 5834 5833 5833 5832 5831 5831 5830 5830
5859 5859 5859 5860 5860 5861 5861 5861 5861 5861 5861 5861 5860 5860 5860 5859 5859 5858 5857 5857 5856 5855 5855 5854 5854 5854 5853 5853 5852 5852 5851 5851 5850 5850 5849 5849 5849 5848 5848 5847 5846 5844 5843 5841 5840 5839 5838 5837 5836 5836 5835 5834 5833 5833 5832 5832 5832 5831 5830 5829 5829 5828
5857 5858 5858 5858 5859 5859 5860 5860 5860 5860 5860 5860 5859 5859 5859 5859 5858 5857 5857 5856 5855 5854 5854 5853 5853 5853 5852 5852 5851 5851 5850 5850 5849 5849 5848 5848 5847 5847 5847 5846 5845 5844 5842 5841 5840 5838 5837 5836 5835 5834 5834 5833 5832 5831 5831 5830 5830 5829 5829 5828 5827 5827
5856 5856 5857 5857 5857 5858 5858 5859 5859 5859 5859 5859 5858 5858 5858 5858 5857 5857 5856 5855 5854 5854 5853 5853 5852 5852 5851 5851 5850 5850 5849 5848 5848 5848 5847 5846 5846 5845 5845 5845 5844 5843 5842 5841 5839 5838 5836 5835 5834 5833 5833 5832 5831 5830 5829 5828 5827 5827 5827 5826 5826 5825
5854 5855 5855 5855 5856 5856 5857 5857 5857 5857 5857 5857 5857 5857 5857 5857 5857 5856 5855 5854 5854 5853 5852 5852 5851 5851 5850 5850 5849 5848 5848 5847 5847 5846 5846 5845 5845 5844 5844 5843 5843 5842 5841 5840 5839 5837 5835 5834 5833 5833 5832 5831 5830 5829 5828 5827 5826 5825 5825 5824 5824 5823
5852 5853 5853 5853 5854 5854 5855 5855 5855 5856 5856 5856 5856 5856 5856 5856 5856 5855 5854 5854 5853 5853 5852 5851 5851 5850 5850 5849 5848 5847 5847 5846 5845 5845 5845 5844 5844 5843 5843 5842 5842 5841 5840 5839 5838 5837 5835 5834 5832 5832 5831 5830 5829 5827 5826 5826 5825 5824 5823 5822 5821 5821
5850 5851 5851 5852 5852 5852 5853 5853 5854 5854 5854 5854 5855 5855 5855 5855 5854 5854 5853 5853 5852 5852 5851 5851 5850 5849 5849 5848 5847 5846 5846 5845 5845 5844 5844 5843 5843 5842 5842 5841 5840 5840 5839 5838 5837 5836 5834 5833 5831 5831 5830 5828 5827 5826 5825 5824 5824 5823 5822 5821 5820 5819
5849 5849 5849 5850 5850 5851 5851 5852 5852 5852 5853 5853 5853 5853 5853 5853 5853 5852 5852 5852 5852 5851 5851 5850 5849 5849 5848 5847 5846 5846 5845 5844 5843 5843 5843 5842 5841 5841 5840 5839 5839 5838 5837 5837 5836 5835 5833 5832 5831 5829 5829 5827 5826 5825 5824 5823 5822 5821 5821 5819 5818 5817
5847 5847 5847 5848 5848 5849 5849 5850 5850 5851 5851 5851 5852 5852 5852 5852 5851 5851 5851 5851 5851 5850 5850 5849 5848 5848 5847 5846 5845 5845 5844 5843 5842 5842 5841 5841 5840 5839 5839 5838 5837 5837 5836 5835 5834 5833 5832 5831 5830 5829 5827 5826 5825 5824 5822 5821 5820 5819 5819 5818 5817 5816
5844 5845 5845 5846 5846 5847 5848 5848 5849 5849 5849 5850 5850 5851 5850 5850 5850 5850 5850 5850 5849 5849 5848 5848 5848 5847 5846 5845 5844 5843 5842 5841 5841 5840 5840 5839 5839 5838 5838 5837 5836 5835 5834 5833 5832 5831 5830 5829 5828 5827 5826 5825 5823 5822 5820 5820 5819 5817 5817 5816 5815 5814
5842 5843 5844 5844 5845 5845 5846 5846 5847 5847 5848 5848 5849 5849 5849 5849 5849 5849 5849 5848 5848 5847 5847 5847 5846 5846 5845 5844 5843 5842 5841 5840 5839 5839 5838 5838 5837 5836 5836 5835 5834 5833 5832 5831 5830 5829 5828 5827 5826 5825 5824 5823 5822 5820 5819 5818 5817 5816 5815 5814 5813 5813
5840 5841 5842 5842 5843 5843 5844 5844 5845 5846 5846 5846 5847 5847 5848 5848 5848 5848 5847 5847 5847 5846 5846 5845 5845 5844 5843 5842 5841 5840 5839 5839 5838 5837 5837 5836 5835 5835 5834 5833 5832 5831 5830 5829 5828 5827 5826 5824 5823 5822 5821 5820 5820 5818 5817 5816 5815 5814 5813 5812 5811 5810
5838 5839 5840 5841 5841 5842 5842 5843 5843 5844 5844 5845 5845 5846 5846 5846 5846 5846 5846 5846 5845 5845 5844 5843 5843 5842 5841 5840 5839 5838 5837 5837 5836 5836 5835 5835 5834 5833 5832 5831 5830 5829 5828 5827 5826 5825 5823 5822 5821 5820 5819 5818 5817 5816 5815 5814 5813 5812 5811 5810 5808 5807
5837 5837 5838 5839 5840 5840 5840 5841 5842 5842 5842 5843 5843 5844 5845 5845 5845 5845 5844 5844 5843 5843 5842 5841 5841 5840 5839 5838 5838 5837 5836 5835 5834 5834 5833 5833 5832 5831 5830 5829 5828 5826 5825 5824 5823 5822 5821 5820 5819 5818 5816 5815 5814 5813 5812 5811 5810 5810 5809 5808 5806 5804
5835 5836 5837 5837 5838 5839 5839 5840 5840 5840 5841 5841 5842 5843 5843 5843 5843 5843 5842 5842 5841 5841 5840 5839 5838 5838 5837 5836 5835 5835 5834 5834 5833 5832 5831 5831 5830 5829 5828 5827 5825 5824 5823 5822 5820 5819 5818 5817 5816 5815 5814 5813 5812 5811 5810 5809 5808 5807 5806 5805 5804 5802
5833 5835 5835 5836 5836 5837 5837 5838 5838 5839 5839 5840 5840 5841 5841 5841 5841 5841 5840 5840 5839 5839 5838 5837 5836 5836 5835 5835 5834 5833 5832 5832 5831 5830 5829 5828 5828 5827 5826 5825 5823 5822 5821 5820 5818 5817 5816 5815 5814 5813 5812 5811 5810 5809 5808 5807 5805 5804 5803 5802 5801 5800
5833 5833 5834 5834 5835 5835 5836 5836 5837 5837 5838 5838 5838 5839 5839 5839 5839 5839 5838 5838 5838 5837 5836 5835 5835 5834 5834 5833 5832 5831 5831 5830 5829 5828 5827 5826 5826 5825 5824 5823 5822 5820 5819 5818 5816 5815 5814 5813 5812 5810 5810 5809 5808 5807 5805 5804 5802 5801 5799 5799 5798 5797
5831 5832 5832 5833 5833 5834 5834 5835 5835 5836 5836 5836 5836 5837 5837 5837 5837 5837 5836 5836 5836 5835 5835 5834 5833 5833 5832 5831 5830 5830 5829 5829 5828 5827 5826 5825 5824 5823 5821 5820 5819 5818 5817 5815 5814 5813 5812 5811 5810 5809 5807 5806 5805 5804 5803 5802 5800 5798 5797 5796 5795 5794
5830 5830 5831 5832 5832 5833 5833 5833 5834 5834 5835 5835 5835 5835 5835 5835 5835 5835 5835 5834 5834 5834 5833 5832 5832 5831 5830 5830 5829 5828 5827 5827 5826 5825 5824 5823 5822 5821 5819 5818 5817 5816 5814 5813 5812 5811 5810 5809 5808 5807 5805 5804 5803 5802 5801 5800 5799 5797 5795 5793 5792 5791
5828 5829 5829 5830 5831 5831 5832 5832 5833 5833 5833 5833 5833 5833 5833 5833 5833 5833 5833 5832 5832 5832 5831 5830 5830 5829 5829 5828 5827 5826 5825 5824 5824 5823 5822 5820 5819 5818 5817 5816 5814 5813 5812 5811 5810 5809 5807 5806 5805 5804 5803 5802 5800 5799 5799 5798 5796 5795 5793 5792 5790 5788
5826 5827 5828 5828 5829 5830 5830 5831 5831 5831 5831 5831 5831 5831 5831 5831 5831 5831 5831 5830 5830 5830 5829 5828 5828 5827 5827 5826 5825 5824 5823 5822 5821 5821 5820 5818 5817 5816 5815 5814 5812 5811 5810 5809 5808 5806 5805 5804 5803 5802 5801 5799 5798 5797 5796 5795 5793 5793 5792 5790 5788 5786
5824 5825 5826 5826 5827 5828 5828 5829 5829 5829 5829 5829 5829 5829 5829 5829 5829 5828 5828 5828 5828 5828 5827 5827 5826 5825 5824 5824 5823 5822 5821 5820 5819 5818 5818 5817 5815 5814 5813 5812 5810 5809 5808 5807 5806 5804 5803 5802 5800 5799 5798 5797 5795 5794 5793 5792 5791 5790 5790 5789 5786 5783
5822 5823 5824 5824 5825 5826 5826 5827 5827 5827 5827 5827 5827 5827 5827 5827 5826 5826 5826 5826 5826 5826 5825 5824 5824 5823 5822 5822 5821 5820 5819 5818 5817 5816 5815 5814 5813 5812 5810 5809 5808 5807 5805 5804 5803 5802 5800 5799 5798 5797 5795 5794 5793 5792 5791 5789 5788 5788 5787 5786 5785 5782
5820 5821 5822 5822 5823 5824 5824 5825 5825 5825 5825 5825 5824 5825 5825 5824 5824 5824 5824 5824 5823 5823 5823 5822 5821 5821 5820 5819 5818 5818 5816 5815 5814 5813 5812 5811 5810 5808 5807 5806 5805 5804 5802 5801 5800 5799 5797 5796 5795 5794 5793 5792 5790 5789 5788 5787 5786 5785 5784 5783 5782 5781
5819 5819 5820 5821 5822 5822 5823 5823 5823 5823 5823 5822 5822 5822 5822 5822 5822 5822 5821 5821 5821 5820 5820 5820 5819 5818 5818 5817 5816 5815 5814 5813 5811 5810 5809 5808 5807 5805 5804 5803 5801 5800 5799 5798 5797 5796 5794 5793 5792 5791 5790 5789 5787 5786 5786 5784 5783 5782 5781 5780 5780 5778
5817 5818 5819 5820 5820 5821 5821 5821 5821 5821 5820 5820 5820 5820 5820 5819 5819 5819 5818 5818 5818 5818 5817 5817 5816 5815 5815 5814 5813 5812 5811 5810 5809 5807 5806 5805 5803 5802 5801 5800 5798 5797 5795 5794 5793 5792 5791 5790 5789 5788 5787 5786 5785 5783 5782 5781 5780 5779 5778 5777 5776 5775
5816 5817 5818 5818 5819 5819 5819 5819 5818 5818 5818 5818 5818 5817 5817 5817 5816 5816 5815 5815 5815 5815 5814 5814 5813 5812 5812 5811 5810 5809 5808 5807 5805 5804 5803 5802 5800 5799 5798 5796 5795 5794 5792 5791 5789 5788 5787 5786 5785 5784 5783 5782 5781 5780 5779 5778 5777 5775 5774 5773 5773 5772
5814 5815 5816 5816 5816 5816 5816 5816 5816 5816 5816 5815 5815 5815 5815 5814 5814 5813 5813 5812 5812 5811 5811 5810 5810 5809 5808 5807 5806 5806 5805 5803 5802 5801 5799 5798 5797 5796 5794 5793 5792 5790 5789 5787 5786 5785 5784 5782 5781 5780 5779 5778 5777 5776 5775 5774 5773 5771 5770 5769 5768 5768
5812 5812 5813 5813 5814 5814 5814 5814 5814 5813 5813 5813 5813 5812 5812 5811 5811 5810 5810 5809 5809 5808 5807 5807 5806 5805 5805 5804 5803 5802 5801 5800 5798 5797 5796 5794 5793 5792 5790 5789 5788 5786 5785 5784 5782 5781 5780 5779 5777 5776 5775 5774 5773 5772 5771 5770 5769 5767 5766 5765 5764 5763
5809 5810 5810 5811 5811 5811 5811 5811 5811 5811 5811 5810 5810 5810 5809 5809 5808 5807 5806 5806 5805 5805 5804 5803 5802 5802 5801 5800 5799 5798 5797 5796 5795 5793 5792 5791 5789 5788 5786 5785 5783 5782 5781 5779 5778 5777 5776 5774 5773 5772 5771 5770 5768 5767 5766 5765 5764 5763 5761 5760 5760 5759
5806 5807 5807 5807 5808 5808 5808 5808 5808 5808 5808 5808 5807 5807 5807 5806 5805 5804 5804 5803 5802 5801 5801 5800 5799 5798 5798 5797 5796 5795 5793 5792 5791 5789 5788 5787 5785 5783 5782 5780 5779 5777 5776 5775 5773 5772 5771 5770 5769 5767 5766 5765 5764 5763 5761 5760 5759 5758 5757 5755 5755 5754